www.pogodaiklimat.ru

Погода и климат >> Архив погоды >> Австралия >> Западная Австралия >> Маунт Магнет аэропорт


ПОГОДА в Маунт Магнет аэропорту

  • Прогноз погоды в Маунт Магнет аэропорту
  • Монитор погоды в Маунт Магнет аэропорту

АРХИВ ПОГОДЫ в Маунт Магнет аэропорту

Время (UTC), дата Ветер
(напр.,м/с)
 
Видим.   Явления Облачность Т
(С)
Тd
(С)
f
(%)
Тe
(С)
Тes
(С)
Комфортность P
(гПа)
Po
(гПа)
Тmin
(С)
Tmax
(С)
R
(мм)
R24
(мм)
S
(см)
07 17.04 В 3 н/о н/о +23.9 +10.6 43 +25 +25 комфорт 1016.9 970.5
09 17.04 В 4 н/о н/о +24.6 +10.5 41 +26 +26 жарко 1016.6 970.2
10 17.04 В 3 н/о н/о +23.5 +10.9 45 +25 +25 комфорт 1016.5 970.1
12 17.04 ЮВ 2 н/о н/о +21.0 +13.2 61 +24 +24 комфорт 1017.7 971.2
13 17.04 ЮВ 2 н/о н/о +19.4 +13.3 68 +21 +21 комфорт 1017.8 971.3 +25.2
15 17.04 штиль 0 н/о н/о +18.3 +14.0 76 +19 +19 1017.0 970.6
16 17.04 штиль 0 н/о н/о +17.4 +13.9 80 +17 +17 1016.3 969.9
18 17.04 В 3 н/о н/о +16.9 +12.6 76 +17 +17 1015.7 969.3
19 17.04 В 2 н/о н/о +16.2 +13.1 82 +16 +16 1015.1 968.8
21 17.04 С 2 н/о н/о +16.2 +13.1 82 +17 +17 1015.0 968.7
22 17.04 СВ 2 н/о н/о +16.3 +12.1 76 +17 +17 1015.0 968.7
00 18.04 СВ 3 н/о н/о +18.2 +12.4 69 +19 +19 1015.5 969.1
01 18.04 СВ 3 н/о н/о +20.3 +12.0 59 +22 +22 комфорт 1015.4 969.0 +16.0
03 18.04 С 5 н/о н/о +24.5 +11.8 45 +26 +26 жарко 1013.7 967.4
04 18.04 С 6 н/о н/о +26.3 +12.0 41 +28 +28 жарко 1012.7 966.5
06 18.04 С 4 н/о н/о +27.6 +12.0 38 +29 +29 жарко 1011.2 965.0
07 18.04 З 3 н/о н/о +27.8 +12.6 39 +29 +29 жарко 1010.8 964.7
09 18.04 З 1 н/о н/о +27.4 +13.0 41 +29 +29 жарко 1009.8 963.7
10 18.04 штиль 0 н/о н/о +25.9 +16.5 56 +29 +29 душно 1010.1 964.0
12 18.04 З 4 н/о н/о +24.3 +12.9 49 +26 +26 жарко 1011.5 965.3
13 18.04 З 3 н/о н/о +22.9 +12.2 51 +26 +26 жарко 1011.8 965.6 +28.4
15 18.04 З 6 н/о н/о +18.9 +13.1 69 +19 +19 1012.4 966.2
16 18.04 ЮЗ 7 н/о н/о +17.9 +13.2 74 +17 +17 1012.5 966.3
18 18.04 З 6 н/о н/о +16.5 +13.0 80 +15 +15 1012.6 966.4
19 18.04 З 4 н/о н/о +15.9 +12.5 80 +15 +15 1012.3 966.1
21 18.04 З 5 н/о н/о +15.0 +12.5 85 +14 +14 1012.7 966.5
22 18.04 СЗ 4 н/о н/о +14.7 +12.9 89 +13 +13 1012.9 966.7
00 19.04 З 7 н/о н/о +15.4 +14.1 92 +14 +14 1014.7 968.4
01 19.04 ЮЗ 9 н/о в посл. час дождь {туман} н/о +14.6 +11.9 84 +12 +12 1016.4 970.0 +14.7
03 19.04 ЮЗ 8 н/о н/о +16.1 +9.8 66 +14 +14 1016.6 970.2
04 19.04 ЮЗ 8 н/о н/о +17.3 +7.9 54 +16 +16 1016.2 969.8
06 19.04 ЮЗ 7 н/о н/о +18.4 +6.6 46 +18 +18 1015.4 969.0
07 19.04 З 7 н/о в посл. час дождь {туман} н/о +19.1 +4.8 39 +19 +19 1015.2 968.9
09 19.04 ЮЗ 6 н/о н/о +17.8 +4.0 40 +17 +17 1015.8 969.4
10 19.04 ЮЗ 7 н/о н/о +16.7 +4.7 45 +16 +16 1016.7 970.3
12 19.04 ЮЗ 5 н/о н/о +15.4 +4.2 47 +14 +14 1018.3 971.8
13 19.04 ЮЗ 6 н/о н/о +14.4 +4.1 50 +13 +13 1019.1 972.6 +24.5
15 19.04 Ю 4 н/о н/о +12.5 +3.7 55 +11 +11 1019.5 973.0
16 19.04 Ю 4 н/о н/о +11.7 +3.5 57 +10 +10 1019.9 973.3
18 19.04 Ю 4 н/о н/о +10.0 +4.2 67 +8 +8 1021.0 974.4
19 19.04 Ю 3 н/о н/о +9.1 +4.3 72 +7 +7 1021.1 974.5
21 19.04 Ю 3 н/о н/о +8.0 +4.6 79 +6 +6 1021.7 975.1
22 19.04 ЮЗ 2 н/о н/о +7.6 +4.4 80 +6 +6 1021.9 975.2
00 20.04 Ю 8 н/о н/о +10.0 +4.2 67 +6 +6 1023.7 977.0
01 20.04 Ю 7 н/о н/о +11.3 +2.6 55 +8 +8 1024.7 977.9 +7.5
03 20.04 Ю 6 н/о н/о +13.6 +1.6 44 +12 +12 1024.2 977.4
04 20.04 Ю 6 н/о н/о +15.3 +1.1 38 +14 +14 1023.1 976.4
06 20.04 Ю 8 н/о н/о +17.3 -1.9 27 +16 +16 1021.5 974.9
07 20.04 Ю 7 н/о н/о +17.5 -2.7 25 +17 +17 1021.4 974.8
09 20.04 Ю 8 н/о н/о +17.1 -3.1 25 +16 +16 1021.1 974.5
10 20.04 Ю 6 н/о н/о +15.9 -2.1 29 +15 +15 1021.9 975.2
12 20.04 Ю 4 н/о н/о +13.8 -0.6 37 +13 +13 1023.2 976.5
13 20.04 Ю 5 н/о н/о +13.4 -1.7 35 +12 +12 1023.4 976.7 +18.2
15 20.04 ЮВ 4 н/о н/о +11.5 -1.6 40 +10 +10 1023.6 976.9
16 20.04 ЮВ 4 н/о н/о +10.5 -1.2 44 +8 +8 1023.5 976.8
18 20.04 ЮВ 3 н/о н/о +8.6 -0.4 53 +7 +7 1023.7 977.0
19 20.04 В 2 н/о н/о +7.5 +0.7 62 +6 +6 1023.7 977.0
21 20.04 В 3 н/о н/о +7.1 +0.5 63 +5 +5 1023.6 976.9
22 20.04 ЮВ 3 н/о н/о +7.1 +1.0 65 +5 +5 1024.4 977.6
00 21.04 В 4 н/о н/о +10.9 -0.5 45 +9 +9 1025.5 978.7
01 21.04 В 6 н/о н/о +13.3 -1.4 36 +11 +11 1025.6 978.8 +6.7
03 21.04 В 8 н/о н/о +16.3 -1.3 30 +15 +15 1024.5 977.7
04 21.04 В 8 н/о н/о +17.4 -0.8 29 +16 +16 1023.4 976.7
06 21.04 В 7 н/о н/о +19.0 -1.4 25 +18 +18 1021.7 975.1
07 21.04 В 7 н/о н/о +19.9 -1.2 24 +19 +19 1021.3 974.7
09 21.04 В 6 н/о н/о +19.8 -0.2 26 +20 +20 1020.8 974.2
10 21.04 В 5 н/о н/о +18.7 -0.2 28 +18 +18 1021.1 974.5
12 21.04 В 4 н/о н/о +16.7 +0.8 34 +16 +16 1021.7 975.1
13 21.04 В 4 н/о н/о +16.1 +0.7 35 +15 +15 1022.1 975.4 +20.8
15 21.04 В 3 н/о н/о +14.2 +1.5 42 +13 +13 1021.9 975.2
16 21.04 В 3 н/о н/о +13.6 +2.2 46 +13 +13 1021.4 974.8
18 21.04 В 4 н/о н/о +13.5 +2.4 47 +12 +12 1021.2 974.6
19 21.04 В 4 н/о н/о +12.8 +2.4 49 +11 +11 1021.2 974.6
21 21.04 В 5 н/о н/о +12.4 +2.0 49 +11 +11 1021.3 974.7
22 21.04 СВ 4 н/о н/о +11.7 +2.2 52 +10 +10 1021.6 975.0
00 22.04 СВ 6 н/о н/о +14.3 +1.6 42 +13 +13 1022.4 975.7
01 22.04 СВ 7 н/о н/о +16.4 +1.7 37 +15 +15 1022.3 975.6 +10.8
03 22.04 СВ 6 н/о н/о +19.6 +1.6 30 +19 +19 1021.5 974.9
04 22.04 СВ 5 н/о н/о +20.8 +1.6 28 +21 +21 комфорт 1020.6 974.0
06 22.04 СВ 3 н/о н/о +22.8 +1.8 25 +22 +22 комфорт 1018.9 972.4
07 22.04 В 5 н/о н/о +23.0 +1.4 24 +22 +22 комфорт 1018.8 972.3
09 22.04 В 3 н/о н/о +23.3 +1.0 23 +22 +22 комфорт 1019.2 972.7
10 22.04 ЮВ 3 н/о н/о +21.8 +2.0 27 +22 +22 комфорт 1019.7 973.1
12 22.04 В 3 н/о н/о +17.4 +3.7 40 +18 +18 1020.8 974.2
13 22.04 В 3 н/о н/о +15.8 +4.8 48 +16 +16 1021.3 974.7 +24.1
15 22.04 В 2 н/о н/о +13.6 +5.3 57 +14 +14 1020.8 974.2
16 22.04 В 3 н/о н/о +15.2 +3.7 46 +15 +15 1020.9 974.3
18 22.04 штиль 0 н/о н/о +12.1 +5.9 66 +12 +12 1020.6 974.0
19 22.04 штиль 0 н/о н/о +11.3 +5.6 68 +11 +11 1020.7 974.1
21 22.04 СВ 3 н/о н/о +11.3 +4.5 63 +10 +10 1020.6 974.0
22 22.04 штиль 0 н/о н/о +10.4 +5.0 69 +10 +10 1021.0 974.4
00 23.04 В 3 н/о н/о +14.3 +5.1 54 +14 +14 1022.3 975.6
01 23.04 СВ 5 н/о н/о +18.8 +3.4 36 +19 +19 1022.5 975.8 +10.1
03 23.04 В 4 н/о н/о +22.8 +4.3 30 +23 +23 комфорт 1021.7 975.1
04 23.04 В 4 н/о н/о +23.8 +3.2 26 +23 +23 комфорт 1021.0 974.4
06 23.04 ЮВ 4 н/о н/о +24.6 +3.3 25 +24 +24 комфорт 1019.7 973.1
07 23.04 В 5 н/о н/о +25.3 +2.7 23 +24 +24 комфорт 1019.5 973.0
09 23.04 ЮВ 5 н/о н/о +25.1 +1.9 22 +24 +24 комфорт 1020.0 973.4
10 23.04 ЮВ 4 н/о н/о +23.5 +2.9 26 +23 +23 комфорт 1020.6 974.0
12 23.04 В 4 н/о н/о +20.0 +3.3 33 +21 +21 комфорт 1021.9 975.2
13 23.04 В 3 н/о н/о +18.2 +4.0 39 +19 +19 1022.2 975.5 +26.0
15 23.04 ЮВ 3 н/о н/о +15.3 +4.7 49 +15 +15 1022.0 975.3
16 23.04 В 2 н/о н/о +14.1 +4.9 54 +14 +14 1021.9 975.2
18 23.04 штиль 0 н/о н/о +13.0 +6.1 63 +13 +13 1021.4 974.8
19 23.04 В 3 н/о н/о +14.6 +4.0 49 +14 +14 1021.4 974.8
21 23.04 В 3 н/о н/о +11.7 +5.1 64 +10 +10 1022.1 975.4
22 23.04 В 2 н/о н/о +11.1 +5.2 67 +10 +10 1022.8 976.1
00 24.04 В 5 н/о н/о +16.6 +4.6 45 +16 +16 1024.1 977.3
01 24.04 В 6 н/о н/о +19.6 +4.1 36 +20 +20 1024.4 977.6 +10.9
03 24.04 В 7 н/о н/о +23.9 +3.8 27 +23 +23 комфорт 1023.6 976.9
04 24.04 В 7 н/о н/о +25.3 +3.9 25 +24 +24 комфорт 1022.4 975.7
06 24.04 В 7 н/о н/о +26.8 +2.7 21 +25 +25 комфорт 1020.7 974.1
07 24.04 ЮВ 5 н/о н/о +27.2 +3.0 21 +26 +26 жарко 1020.5 973.9

 

Местоположение метеостанции Маунт Магнет аэропорт (Западная Австралия, Австралия): широта -28.11 долгота 117.83 высота над уровнем моря 408 м.

В архиве по умолчанию представлена погода в Маунт Магнет аэропорту за последнюю неделю. Архивные данные за месяц целиком и за предыдущие месяцы, начиная с января 2011 года, Вы можете получить, выбрав интересующий диапазон дат из раскрывающегося списка и нажав кнопку "Ввод!".


*Определитесь, кто Вы:
робот инопланетянин человек

Внимание! Время в таблицах - всемирное. Для получения местного времени необходимо прибавить поправку, которая равна 8 ч.

Смотрите также архив погоды в соседних городах и на ближайших метеорологических станциях:

Погода в Микатарре (Западная Австралия, Австралия) (181 км)
Погода в Мораве (Западная Австралия, Австралия) (214 км)
Погода в Дауоллину (Западная Австралия, Австралия) (266 км)
Погода в Леинстере (Западная Австралия, Австралия) (283 км)
Погода в Джеральдтоне (Западная Австралия, Австралия) (316 км)
Погода в Баджингарре (Западная Австралия, Австралия) (333 км)
Погода в Леонора аэропорту (Западная Австралия, Австралия) (352 км)
Погода в Саутерн Кросс (Западная Австралия, Австралия) (377 км)
Погода в Кандердине (Западная Австралия, Австралия) (395 км)
Погода в Гингине (Западная Австралия, Австралия) (419 км)

Пояснения к столбцам:

Ветер - указаны скорость ветра в м/с - средняя за 10 мин, порывы в срок и между сроками (в фигурных скобках) и направление, откуда дует ветер: С - северный, СВ - северо-восточный, В - восточный, ЮВ - юго-восточный, Ю - южный, ЮЗ - юго-западный, З - западный, СЗ - северо-западный.
Видимость - горизонтальная дальность видимости в метрах или километрах. При видимости от 1 до 10 км при отсутствии осадков обычно наблюдается дымка, при ухудшении видимости до 1 км и менее - туман. В сухую погоду видимость может ухудшаться дымом, пылью или мглою.
Явления - указаны атмосферные явления, наблюдавшиеся в срок или в последний час перед сроком; фигурными скобками обозначены явления, наблюдавшиеся между сроками (за 1-3 часа до срока); квадратными скобками обозначены град или гололедные отложения с указанием их диаметра в мм.
Облачность - указаны через наклонную черту общая и нижняя облачность в баллах и высота нижней границы облаков в метрах; квадратными скобками обозначены формы облаков: Ci - перистые, Cs - перисто-слоистые, Cc - перисто-кучевые, Ac - высококучевые, As - высокослоистые, Sc - слоисто-кучевые, Ns - слоисто-дождевые, Cu - кучевые, Cb - кучево-дождевые. Подробнее классификацию облаков см. в Атласе облаков (PDF).
T - Температура воздуха - температура, измеренная на высоте 2 м над землей.
Td - Температура точки росы - температура, при понижении до которой содержащийся в воздухе водяной пар достигнет насыщения.
f - Относительная влажность воздуха - влажноcть воздуха, измеренная на высоте 2 м над землей.
Te - Эффективная температура - температура, которую ощущает одетый по сезону человек в тени. Характеристика душности погоды. При расчете учитывается влияние влажности воздуха и скорости ветра на теплоощущения человека.
Tes - Эффективная температура на солнце - температура, которую ощущает человек, с поправкой на солнечный нагрев. Характеристика знойности погоды. Зависит от высоты солнца над горизонтом, облачности и скорости ветра. Ночью, в пасмурную погоду, а также при ветре 12 м/с и более поправка равна нулю.
P - Атмосферное давление - приведенное к уровню моря атмосферное давление.
Po - Атмосферное давление - измеренное на уровне метеостанции атмосферное давление.
Tmin - Минимальная температура - минимум температуры воздуха на высоте 2 м над землей.
Tmax - Максимальная температура - максимум температуры воздуха на высоте 2 м над землей.
R - Количество осадков - Количество выпавших осадков за период времени, мм. При наведении курсора мыши на число - период времени, за который выпало указанное количество осадков.
R24 - Количество осадков - Количество выпавших осадков за 24 часа, мм.
S - Снежный покров - Высота снежного покрова, см. При наведении курсора мыши на число - состояние снежного покрова и степень покрытия местности в баллах.